FW0714 Weather Reports


time (UTC)temp
F
wind
direction
speed
knots
gust
knots
rain 1hr
in
rain 24hr
in
rain mn
in
humidity
%
barometer
mb
20260506023717 50 307 1.7 7.8 0.00 0.00 0.00 86 1007.7
20260506023215 50 21 1.7 7.8 0.00 0.00 0.00 86 1007.7
20260506022716 50 25 1.7 6.1 0.00 0.00 0.00 86 1007.7
20260506022218 50 1 2.6 7.8 0.00 0.00 0.00 86 1007.8
20260506021706 50 51 1.7 7.8 0.00 0.00 0.00 86 1007.8
20260506021217 50 3 0.9 7.8 0.00 0.00 0.00 86 1007.9
20260506020712 50 41 2.6 5.2 0.00 0.00 0.00 86 1008.0
20260506020215 50 11 2.6 5.2 0.00 0.00 0.00 85 1008.0
20260506015716 50 79 1.7 7.8 0.00 0.00 0.00 85 1008.0
20260506015207 50 21 1.7 7.8 0.00 0.00 0.00 85 1008.1
20260506014707 50 13 1.7 7.8 0.00 0.00 0.00 85 1008.1
20260506014220 50 0 1.7 5.2 0.00 0.00 0.00 85 1008.1
20260506013710 50 51 0.9 6.1 0.00 0.00 0.00 85 1008.2
20260506012217 50 38 2.6 6.1 0.00 0.00 0.00 84 1008.3
20260506011712 50 7 0.9 6.1 0.00 0.00 0.00 84 1008.3
20260506010209 50 31 1.7 9.6 0.00 0.00 0.00 84 1008.3
20260506005709 50 51 0.9 9.6 0.00 0.00 0.00 84 1008.3
20260506005207 50 48 2.6 6.1 0.00 0.00 0.00 84 1008.3
20260506004715 50 0 1.7 6.1 0.00 0.00 0.00 84 1008.4
20260506004206 50 65 0.9 6.1 0.00 0.00 0.00 84 1008.4
20260506003217 50 97 2.6 5.2 0.00 0.00 0.00 84 1008.5
20260506002720 50 66 2.6 7.8 0.00 0.00 0.00 84 1008.6
20260506002219 50 41 1.7 7.8 0.00 0.00 0.00 84 1008.6
20260506001715 50 49 1.7 7.8 0.00 0.00 0.00 84 1008.6
20260506001217 50 42 0.9 4.3 0.00 0.00 0.00 83 1008.6
20260506000710 50 54 1.7 4.3 0.00 0.00 0.00 83 1008.7
20260506000219 50 44 0.9 6.1 0.00 0.00 0.00 83 1008.8
20260505235708 50 56 0.9 6.1 0.00 0.00 0.00 83 1008.9
20260505235208 50 52 2.6 6.1 0.00 0.00 0.00 83 1008.9
20260505234707 50 16 1.7 6.1 0.00 0.00 0.00 83 1009.0
20260505234209 50 357 0.9 6.1 0.00 0.00 0.00 83 1009.1
20260505233711 50 68 1.7 6.1 0.00 0.00 0.00 82 1009.1
20260505233211 50 10 2.6 5.2 0.00 0.00 0.00 82 1009.1
20260505232712 50 314 1.7 5.2 0.00 0.00 0.00 82 1009.1
20260505231716 50 35 1.7 6.1 0.00 0.00 0.00 82 1009.1
20260505231217 50 0 2.6 8.7 0.00 0.00 0.00 81 1009.1
20260505230712 50 51 1.7 8.7 0.00 0.00 0.00 81 1009.1
20260505230218 50 55 2.6 8.7 0.00 0.00 0.00 81 1009.1
20260505225710 50 73 3.5 8.7 0.00 0.00 0.00 81 1009.2
20260505225215 50 16 2.6 8.7 0.00 0.00 0.00 81 1009.1
20260505224710 50 0 2.6 6.1 0.00 0.00 0.00 81 1009.3
20260505224211 50 0 3.5 5.2 0.00 0.00 0.00 81 1009.3
20260505223714 50 48 1.7 6.1 0.00 0.00 0.00 81 1009.3
20260505223212 50 65 1.7 7.8 0.00 0.00 0.00 81 1009.4
20260505222709 50 21 1.7 7.8 0.00 0.00 0.00 81 1009.3
20260505222217 50 63 2.6 7.8 0.00 0.00 0.00 81 1009.4
20260505221706 50 0 2.6 8.7 0.00 0.00 0.00 82 1009.4
20260505221211 50 39 1.7 8.7 0.00 0.00 0.00 82 1009.4
20260505220716 50 38 3.5 8.7 0.00 0.00 0.00 82 1009.3
20260505220209 50 35 2.6 9.6 0.00 0.00 0.00 82 1009.3
20260505215718 50 55 2.6 9.6 0.00 0.00 0.00 82 1009.4
20260505215209 50 44 1.7 7.8 0.00 0.00 0.00 82 1009.4
20260505214710 50 23 1.7 7.8 0.00 0.00 0.00 82 1009.4
20260505214213 50 82 1.7 7.8 0.00 0.00 0.00 82 1009.5
20260505213718 50 38 1.7 7.8 0.00 0.00 0.00 82 1009.6
20260505213215 50 23 2.6 6.1 0.00 0.00 0.00 82 1009.6
20260505212705 50 37 2.6 6.1 0.00 0.00 0.00 82 1009.6
20260505212212 50 303 1.7 6.1 0.00 0.00 0.00 82 1009.7
20260505211715 50 51 1.7 8.7 0.00 0.00 0.00 82 1009.7
20260505210713 50 93 1.7 7.8 0.00 0.00 0.00 82 1009.7
20260505210209 50 11 1.7 8.7 0.00 0.00 0.00 82 1009.7
20260505205718 50 0 1.7 8.7 0.00 0.00 0.00 82 1009.8
20260505205209 50 3 1.7 8.7 0.00 0.00 0.00 83 1009.8
20260505204708 50 10 2.6 6.1 0.00 0.00 0.00 83 1009.8
20260505204210 50 11 1.7 6.1 0.00 0.00 0.00 83 1009.8
20260505203711 50 30 1.7 6.1 0.00 0.00 0.00 83 1009.9
20260505203211 50 72 2.6 6.1 0.00 0.00 0.00 83 1009.9
20260505202711 50 54 1.7 10.4 0.00 0.00 0.00 83 1009.9
20260505202205 50 51 2.6 10.4 0.00 0.00 0.00 83 1009.9
20260505201709 50 54 2.6 10.4 0.00 0.00 0.00 83 1009.8
20260505201217 51 0 3.5 6.1 0.00 0.00 0.00 82 1009.9
20260505200711 51 13 2.6 6.1 0.00 0.00 0.00 82 1009.8
20260505200217 51 79 1.7 6.1 0.00 0.00 0.00 82 1009.9
20260505195719 51 8 1.7 8.7 0.00 0.00 0.00 82 1009.9
20260505195206 51 131 1.7 11.3 0.00 0.00 0.00 82 1009.9
20260505194720 51 13 2.6 11.3 0.00 0.00 0.00 82 1009.9
20260505192711 51 21 1.7 7.8 0.00 0.00 0.00 82 1009.8
20260505191720 51 62 2.6 11.3 0.00 0.00 0.00 81 1009.7
20260505191218 51 48 1.7 11.3 0.00 0.00 0.00 82 1009.7
20260505190218 52 18 2.6 9.6 0.00 0.00 0.00 82 1009.5
20260505185715 52 16 2.6 7.8 0.00 0.00 0.00 82 1009.5
20260505185210 52 3 2.6 7.8 0.00 0.00 0.00 81 1009.5
20260505184712 52 55 3.5 8.7 0.00 0.00 0.00 81 1009.5
20260505184217 52 0 2.6 9.6 0.00 0.00 0.00 81 1009.4
20260505183711 52 61 2.6 9.6 0.00 0.00 0.00 81 1009.4
20260505183219 53 252 2.6 9.6 0.00 0.00 0.00 81 1009.4
20260505182705 53 0 3.5 6.1 0.00 0.00 0.00 81 1009.4
20260505182220 53 4 2.6 8.7 0.00 0.00 0.00 80 1009.4
20260505181719 53 25 0.9 8.7 0.00 0.00 0.00 80 1009.5
20260505180209 53 48 1.7 7.8 0.00 0.00 0.00 79 1009.4
20260505175705 53 54 2.6 7.8 0.00 0.00 0.00 79 1009.5
20260505175206 54 42 0.9 7.8 0.00 0.00 0.00 79 1009.4
20260505174705 54 10 2.6 7.8 0.00 0.00 0.00 79 1009.4
20260505174209 54 28 1.7 6.1 0.00 0.00 0.00 79 1009.4
20260505173709 54 321 1.7 7.8 0.00 0.00 0.00 78 1009.4
20260505173206 54 75 1.7 7.8 0.00 0.00 0.00 78 1009.4
20260505172713 54 28 0.9 7.8 0.00 0.00 0.00 77 1009.5
20260505172218 54 51 1.7 6.1 0.00 0.00 0.00 77 1009.4
20260505171717 54 45 2.6 5.2 0.00 0.00 0.00 76 1009.5
20260505171209 54 0 0.9 6.1 0.00 0.00 0.00 76 1009.5
20260505170714 54 14 1.7 6.1 0.00 0.00 0.00 75 1009.5
20260505170217 54 227 1.7 6.1 0.00 0.00 0.00 75 1009.6
20260505165707 54 298 1.7 6.1 0.00 0.00 0.00 75 1009.6
20260505164714 54 39 2.6 6.1 0.00 0.00 0.00 75 1009.6
20260505164218 54 289 1.7 8.7 0.00 0.00 0.00 75 1009.6
20260505162220 55 324 1.7 9.6 0.00 0.00 0.00 76 1009.5
20260505161714 55 52 2.6 9.6 0.00 0.00 0.00 75 1009.6
20260505161216 55 44 2.6 9.6 0.00 0.00 0.00 76 1009.6
20260505160711 55 358 1.7 7.8 0.00 0.00 0.00 76 1009.6
20260505160209 55 47 1.7 7.8 0.00 0.00 0.00 76 1009.6
20260505153207 55 63 1.7 6.1 0.00 0.00 0.00 78 1009.8
20260505152732 55 276 1.7 6.1 0.00 0.00 0.00 78 1009.8
20260505151724 55 49 1.7 7.8 0.00 0.00 0.00 77 1009.8
20260505151212 55 55 4.3 7.8 0.00 0.00 0.00 77 1009.9
20260505150710 55 52 1.7 7.8 0.00 0.00 0.00 78 1009.9
20260505150210 55 13 3.5 7.8 0.00 0.00 0.00 79 1009.8
20260505140217 54 62 1.7 4.3 0.00 0.00 0.00 80 1010.2
20260505130211 54 44 3.5 8.7 0.00 0.00 0.00 80 1010.7
20260505124718 54 1 2.6 6.1 0.00 0.00 0.00 80 1010.8
20260505124206 54 80 1.7 5.2 0.00 0.00 0.00 80 1010.9
20260505123715 54 27 1.7 4.3 0.00 0.00 0.00 80 1010.9
20260505123208 54 8 1.7 4.3 0.00 0.00 0.00 81 1010.9
20260505122719 53 319 0.9 4.3 0.00 0.00 0.00 83 1010.9
20260505122206 53 21 1.7 5.2 0.00 0.00 0.00 82 1010.9
20260505121710 52 42 2.6 6.1 0.00 0.00 0.00 83 1011.0
20260505121215 52 54 2.6 6.1 0.00 0.00 0.00 83 1011.0
20260505120214 52 55 3.5 7.8 0.00 0.00 0.00 83 1011.0
20260505115209 52 83 3.5 7.8 0.00 0.00 0.00 83 1011.0
20260505114207 52 35 3.5 6.1 0.00 0.00 0.00 83 1011.0
20260505113736 52 90 2.6 5.2 0.00 0.00 0.00 83 1011.0
20260505113215 52 25 1.7 7.8 0.00 0.00 0.00 83 1011.0
20260505112219 52 54 2.6 7.8 0.00 0.00 0.00 83 1011.2
20260505111719 52 59 2.6 7.8 0.00 0.00 0.00 83 1011.2
20260505111209 52 45 1.7 7.8 0.00 0.00 0.00 83 1011.2
20260505110708 52 59 2.6 8.7 0.00 0.00 0.00 83 1011.2
20260505110209 52 11 3.5 8.7 0.00 0.00 0.00 82 1011.2
20260505102216 52 37 2.6 6.1 0.00 0.00 0.00 82 1011.3
20260505101718 52 27 0.9 6.1 0.00 0.00 0.00 81 1011.3
20260505101208 52 300 0.9 5.2 0.00 0.00 0.00 82 1011.4
20260505100710 52 24 1.7 4.3 0.00 0.00 0.00 81 1011.4
20260505100218 52 76 1.7 7.8 0.00 0.00 0.00 82 1011.4
20260505095706 52 51 2.6 7.8 0.00 0.00 0.00 81 1011.4
20260505095213 52 56 2.6 6.1 0.00 0.00 0.00 81 1011.4
20260505094212 52 71 3.5 6.1 0.00 0.00 0.00 82 1011.5
20260505093711 52 68 2.6 6.1 0.00 0.00 0.00 82 1011.5
20260505093217 52 71 2.6 5.2 0.00 0.00 0.00 82 1011.6
20260505092709 52 55 1.7 6.1 0.00 0.00 0.00 82 1011.6
20260505092215 52 320 1.7 10.4 0.00 0.00 0.00 82 1011.6
20260505091716 52 37 2.6 10.4 0.00 0.00 0.00 82 1011.5
20260505091210 51 28 1.7 10.4 0.00 0.00 0.00 83 1011.6
20260505090711 51 39 3.5 6.1 0.00 0.00 0.00 83 1011.6
20260505090216 51 0 2.6 9.6 0.00 0.00 0.00 83 1011.6
20260505085707 51 18 0.9 9.6 0.00 0.00 0.00 85 1011.6
20260505085216 50 83 1.7 9.6 0.00 0.00 0.00 85 1011.7
20260505084717 50 16 2.6 8.7 0.00 0.00 0.00 86 1011.7
20260505084215 49 61 4.3 8.7 0.00 0.00 0.00 86 1011.8
20260505083717 49 45 4.3 8.7 0.00 0.00 0.00 87 1011.9
20260505083206 49 37 3.5 8.7 0.00 0.00 0.00 88 1011.9
20260505082216 48 94 3.5 8.7 0.00 0.00 0.00 89 1011.9
20260505081717 48 38 3.5 6.1 0.00 0.00 0.00 89 1011.9
20260505081218 48 4 1.7 6.1 0.00 0.00 0.00 89 1012.0
20260505080715 48 10 1.7 6.1 0.00 0.00 0.00 89 1012.1
20260505080210 48 68 2.6 6.1 0.00 0.00 0.00 89 1012.2
20260505075716 48 68 3.5 6.1 0.00 0.00 0.00 89 1012.1
20260505075219 47 41 1.7 5.2 0.00 0.00 0.00 90 1012.2
20260505074715 47 59 1.7 5.2 0.00 0.00 0.00 90 1012.1
20260505074209 47 345 1.7 4.3 0.00 0.00 0.00 90 1012.1
20260505073707 47 44 1.7 4.3 0.00 0.00 0.00 90 1012.2
20260505073215 47 347 1.7 5.2 0.00 0.00 0.00 90 1012.1
20260505072715 47 47 0.9 6.1 0.00 0.00 0.00 89 1012.1
20260505072210 47 18 1.7 6.1 0.00 0.00 0.00 90 1012.1
20260505071708 47 32 1.7 5.2 0.00 0.00 0.00 90 1012.0
20260505071218 47 0 1.7 5.2 0.00 0.00 0.00 90 1012.0
20260505070715 47 52 1.7 4.3 0.00 0.00 0.00 90 1012.1
20260505070215 47 49 1.7 6.1 0.00 0.00 0.00 90 1012.1
20260505065706 47 83 1.7 6.1 0.00 0.00 0.00 90 1012.1
20260505065217 47 42 1.7 6.1 0.00 0.00 0.00 90 1012.1
20260505064719 47 357 2.6 4.3 0.00 0.00 0.00 90 1012.1
20260505064212 47 52 1.7 5.2 0.00 0.00 0.00 90 1012.1
20260505063718 47 89 2.6 6.1 0.00 0.00 0.00 90 1012.1
20260505063218 47 48 1.7 6.1 0.00 0.00 0.00 89 1012.0
20260505062714 47 54 3.5 6.1 0.00 0.00 0.00 89 1012.0
20260505062217 47 44 2.6 6.1 0.00 0.00 0.00 89 1012.0
20260505061709 47 66 1.7 5.2 0.00 0.00 0.00 90 1012.0
20260505060714 47 49 1.7 5.2 0.00 0.00 0.00 89 1012.0
20260505055218 47 69 3.5 7.8 0.00 0.00 0.00 89 1012.1
20260505053707 47 61 2.6 6.1 0.00 0.00 0.00 89 1012.0
20260505053207 47 14 0.9 6.1 0.00 0.00 0.00 88 1012.0
20260505052707 47 59 2.6 7.8 0.00 0.00 0.00 88 1012.0
20260505052209 47 73 2.6 7.8 0.00 0.00 0.00 88 1012.0
20260505051206 47 61 3.5 7.8 0.00 0.00 0.00 88 1011.9
20260505050716 47 48 2.6 7.8 0.00 0.00 0.00 88 1012.0
20260505050215 47 13 2.6 7.8 0.00 0.00 0.00 88 1012.0
20260505041714 47 351 3.5 6.1 0.00 0.00 0.00 88 1011.9
20260505041211 48 38 2.6 6.1 0.00 0.00 0.00 88 1011.8
20260505040713 47 51 1.7 7.8 0.00 0.00 0.00 88 1011.8
20260505040210 48 55 2.6 7.8 0.00 0.00 0.00 88 1011.8
20260505035709 48 10 1.7 7.8 0.00 0.00 0.00 88 1011.7
20260505035209 48 83 2.6 7.8 0.00 0.00 0.00 88 1011.7
20260505034717 48 73 0.9 7.8 0.00 0.00 0.00 88 1011.7
20260505034206 48 62 1.7 7.8 0.00 0.00 0.00 88 1011.7
20260505033714 48 54 3.5 9.6 0.00 0.00 0.00 88 1011.8
20260505033206 48 52 2.6 9.6 0.00 0.00 0.00 88 1011.9
20260505032710 48 42 0.9 6.1 0.00 0.00 0.00 88 1011.8
20260505032214 48 86 1.7 4.3 0.00 0.00 0.00 88 1011.8
20260505031708 48 0 1.7 4.3 0.00 0.00 0.00 88 1011.9
20260505031214 48 51 0.0 5.2 0.00 0.00 0.00 88 1011.9
20260505030719 48 56 1.7 7.8 0.00 0.00 0.00 88 1012.0
20260505030241 48 63 1.7 7.8 0.00 0.00 0.00 88 1012.0
20260505025716 48 59 2.6 7.8 0.00 0.00 0.00 88 1012.0
20260505025217 48 44 1.7 4.3 0.00 0.00 0.00 88 1012.0
20260505024709 48 21 1.7 3.5 0.00 0.00 0.00 88 1012.0
20260505024206 48 44 1.7 4.3 0.00 0.00 0.00 88 1012.1